When you browse on this site, cookies collect data to enhance your experience and personalize the content and advertising you see.
Visit our Privacy Policy to learn more. By continuing to use the site, you agree to this use of cookies and data.
  • In Germany
  • List of Countries
  • For 7 days
  • Water Temperature
  • Satellite Maps
  • Weather Map
  • Weather Widgets
  • user-avatar
    Login

    Hourly Weather Zascienie

    Today, 20 May, Monday

    Time Temperature Precipitation Wind Pressure Humidity
    00:00 +17°C° 0 mm 3 mps 747 mmHg 95%
    01:00 +16°C° 0 mm 3 mps 747 mmHg 95%
    02:00 +16°C° 0 mm 3 mps 747 mmHg 96%
    03:00 +15°C° 0 mm 4 mps 747 mmHg 96%
    04:00 +15°C° 0 mm 4 mps 746 mmHg 97%
    05:00 +17°C° 0 mm 4 mps 746 mmHg 94%
    06:00 +17°C° 0 mm 5 mps 746 mmHg 92%
    07:00 +19°C° 0 mm 5 mps 746 mmHg 89%
    08:00 +20°C° 0 mm 6 mps 746 mmHg 87%
    09:00 +21°C° 0 mm 6 mps 746 mmHg 84%
    10:00 +21°C° 0 mm 6 mps 746 mmHg 82%
    11:00 +23°C° 0 mm 6 mps 746 mmHg 78%
    12:00 +24°C° 0 mm 6 mps 745 mmHg 73%
    13:00 +26°C° 0 mm 6 mps 745 mmHg 69%
    14:00 +26°C° 0.7 mm 6 mps 745 mmHg 71%
    15:00 +24°C° 0.7 mm 6 mps 745 mmHg 73%
    16:00 +25°C° 0.7 mm 5 mps 745 mmHg 74%
    17:00 +23°C° 1.2 mm 5 mps 745 mmHg 77%
    18:00 +22°C° 1.2 mm 4 mps 745 mmHg 80%
    19:00 +21°C° 1.2 mm 4 mps 745 mmHg 82%
    20:00 +20°C° 0.8 mm 4 mps 745 mmHg 85%
    21:00 +19°C° 0.8 mm 3 mps 745 mmHg 87%
    22:00 +18°C° 0.8 mm 3 mps 745 mmHg 90%
    23:00 +18°C° 0.2 mm 3 mps 745 mmHg 91%

    Tomorrow, 21 May, Tuesday

    Time Temperature Precipitation Wind Pressure Humidity
    00:00 +17°C° 0.2 mm 3 mps 745 mmHg 93%
    01:00 +17°C° 0.2 mm 3 mps 745 mmHg 95%
    02:00 +17°C° 0 mm 3 mps 745 mmHg 95%
    03:00 +17°C° 0 mm 3 mps 745 mmHg 95%
    04:00 +16°C° 0 mm 3 mps 744 mmHg 95%
    05:00 +17°C° 0.2 mm 3 mps 745 mmHg 93%
    06:00 +18°C° 0.2 mm 4 mps 745 mmHg 90%
    07:00 +19°C° 0.2 mm 4 mps 745 mmHg 88%
    08:00 +19°C° 0.1 mm 5 mps 745 mmHg 88%
    09:00 +19°C° 0.1 mm 5 mps 744 mmHg 87%
    10:00 +19°C° 0.1 mm 5 mps 744 mmHg 87%
    11:00 +20°C° 0.1 mm 6 mps 744 mmHg 82%
    12:00 +21°C° 0.1 mm 6 mps 744 mmHg 77%
    13:00 +21°C° 0.1 mm 7 mps 743 mmHg 72%
    14:00 +21°C° 0.4 mm 7 mps 743 mmHg 72%
    15:00 +21°C° 0.4 mm 7 mps 743 mmHg 73%
    16:00 +21°C° 0.4 mm 7 mps 742 mmHg 73%
    17:00 +19°C° 0.1 mm 6 mps 742 mmHg 76%
    18:00 +17°C° 0.1 mm 6 mps 742 mmHg 79%
    19:00 +15°C° 0.1 mm 5 mps 742 mmHg 82%
    20:00 +15°C° 0 mm 5 mps 743 mmHg 85%
    21:00 +15°C° 0 mm 6 mps 743 mmHg 88%
    22:00 +15°C° 0 mm 6 mps 743 mmHg 90%
    23:00 +15°C° 0 mm 6 mps 743 mmHg 90%

    Day after tomorrow, 22 May, Wednesday

    Time Temperature Precipitation Wind Pressure Humidity
    00:00 +15°C° 0 mm 6 mps 743 mmHg 90%
    01:00 +15°C° 0 mm 6 mps 743 mmHg 89%
    02:00 +14°C° 0.1 mm 6 mps 743 mmHg 89%
    03:00 +14°C° 0.1 mm 5 mps 744 mmHg 88%
    04:00 +14°C° 0.1 mm 5 mps 744 mmHg 88%
    05:00 +14°C° 0 mm 5 mps 744 mmHg 88%
    06:00 +15°C° 0 mm 5 mps 744 mmHg 87%
    07:00 +15°C° 0 mm 5 mps 744 mmHg 87%
    08:00 +16°C° 0 mm 5 mps 744 mmHg 83%
    09:00 +17°C° 0 mm 5 mps 745 mmHg 79%
    10:00 +19°C° 0 mm 5 mps 745 mmHg 75%
    11:00 +20°C° 0.6 mm 5 mps 745 mmHg 74%
    12:00 +20°C° 0.6 mm 5 mps 745 mmHg 74%
    13:00 +20°C° 0.6 mm 5 mps 744 mmHg 73%
    14:00 +20°C° 0.7 mm 5 mps 744 mmHg 74%
    15:00 +20°C° 0.7 mm 5 mps 744 mmHg 74%
    16:00 +20°C° 0.7 mm 5 mps 744 mmHg 75%
    17:00 +19°C° 0.2 mm 4 mps 744 mmHg 79%
    18:00 +18°C° 0.2 mm 3 mps 744 mmHg 83%
    19:00 +17°C° 0.2 mm 3 mps 744 mmHg 87%
    20:00 +17°C° 0.1 mm 3 mps 745 mmHg 90%
    21:00 +16°C° 0.1 mm 3 mps 745 mmHg 92%
    22:00 +14°C° 0.1 mm 3 mps 745 mmHg 95%
    23:00 +15°C° 0.5 mm 2 mps 745 mmHg 95%

    23 May, Thursday

    Time Temperature Precipitation Wind Pressure Humidity
    00:00 +15°C° 0.5 mm 2 mps 745 mmHg 96%
    01:00 +14°C° 0.5 mm 2 mps 745 mmHg 97%
    02:00 +14°C° 0.1 mm 2 mps 745 mmHg 96%
    03:00 +14°C° 0.1 mm 2 mps 745 mmHg 96%
    04:00 +14°C° 0.1 mm 2 mps 745 mmHg 96%
    05:00 +14°C° 0 mm 2 mps 746 mmHg 94%
    06:00 +15°C° 0 mm 1 mps 746 mmHg 92%
    07:00 +16°C° 0 mm 1 mps 746 mmHg 90%
    08:00 +16°C° 0.1 mm 1 mps 746 mmHg 88%
    09:00 +18°C° 0.1 mm 1 mps 747 mmHg 86%
    10:00 +17°C° 0.1 mm 0 mps 747 mmHg 84%
    11:00 +18°C° 0.9 mm 2 mps 747 mmHg 83%
    12:00 +19°C° 0.9 mm 3 mps 748 mmHg 82%
    13:00 +19°C° 0.9 mm 5 mps 748 mmHg 81%
    14:00 +19°C° 0.6 mm 5 mps 748 mmHg 82%
    15:00 +17°C° 0.6 mm 6 mps 748 mmHg 83%
    16:00 +16°C° 0.6 mm 7 mps 749 mmHg 84%
    17:00 +15°C° 0 mm 6 mps 749 mmHg 84%
    18:00 +14°C° 0 mm 6 mps 749 mmHg 85%
    19:00 +13°C° 0 mm 6 mps 749 mmHg 85%
    20:00 +12°C° 0 mm 5 mps 750 mmHg 83%
    21:00 +10°C° 0 mm 5 mps 750 mmHg 82%
    22:00 +10°C° 0 mm 4 mps 750 mmHg 80%
    23:00 +10°C° 0 mm 4 mps 750 mmHg 80%

    24 May, Friday

    Time Temperature Precipitation Wind Pressure Humidity
    00:00 +9°C° 0 mm 5 mps 750 mmHg 79%
    01:00 +9°C° 0 mm 5 mps 751 mmHg 79%
    02:00 +10°C° 0 mm 4 mps 751 mmHg 80%
    03:00 +10°C° 0 mm 4 mps 751 mmHg 81%
    04:00 +10°C° 0 mm 4 mps 750 mmHg 81%
    05:00 +10°C° 0 mm 4 mps 750 mmHg 80%
    06:00 +11°C° 0 mm 4 mps 750 mmHg 79%
    07:00 +12°C° 0 mm 4 mps 750 mmHg 79%
    08:00 +14°C° 0 mm 4 mps 750 mmHg 73%
    09:00 +15°C° 0 mm 4 mps 750 mmHg 67%
    10:00 +18°C° 0 mm 4 mps 750 mmHg 61%
    11:00 +18°C° 0 mm 4 mps 750 mmHg 59%
    12:00 +19°C° 0 mm 4 mps 749 mmHg 57%
    13:00 +20°C° 0 mm 4 mps 749 mmHg 54%
    14:00 +20°C° 0 mm 3 mps 749 mmHg 55%
    15:00 +19°C° 0 mm 3 mps 749 mmHg 55%
    16:00 +19°C° 0 mm 3 mps 748 mmHg 56%
    17:00 +18°C° 0 mm 3 mps 748 mmHg 61%
    18:00 +17°C° 0 mm 2 mps 748 mmHg 66%
    19:00 +16°C° 0 mm 2 mps 748 mmHg 71%
    20:00 +15°C° 0 mm 2 mps 748 mmHg 75%
    21:00 +13°C° 0 mm 2 mps 748 mmHg 80%
    22:00 +12°C° 0 mm 2 mps 748 mmHg 84%
    23:00 +12°C° 0 mm 2 mps 748 mmHg 86%

    25 May, Saturday

    Time Temperature Precipitation Wind Pressure Humidity
    00:00 +10°C° 0 mm 2 mps 748 mmHg 88%
    01:00 +10°C° 0 mm 2 mps 748 mmHg 90%
    02:00 +9°C° 0 mm 2 mps 748 mmHg 90%
    03:00 +10°C° 0 mm 1 mps 748 mmHg 90%
    04:00 +10°C° 0 mm 1 mps 748 mmHg 89%
    05:00 +11°C° 0 mm 1 mps 748 mmHg 83%
    06:00 +13°C° 0 mm 1 mps 748 mmHg 76%
    07:00 +15°C° 0 mm 1 mps 749 mmHg 69%
    08:00 +16°C° 0 mm 1 mps 749 mmHg 64%
    09:00 +19°C° 0 mm 1 mps 749 mmHg 59%
    10:00 +19°C° 0 mm 2 mps 748 mmHg 54%
    11:00 +20°C° 0 mm 2 mps 748 mmHg 52%
    12:00 +20°C° 0 mm 2 mps 748 mmHg 49%
    13:00 +21°C° 0 mm 2 mps 748 mmHg 46%
    14:00 +21°C° 0 mm 2 mps 748 mmHg 47%
    15:00 +21°C° 0 mm 2 mps 748 mmHg 48%
    16:00 +21°C° 0 mm 3 mps 748 mmHg 49%
    17:00 +20°C° 0 mm 2 mps 748 mmHg 54%
    18:00 +19°C° 0 mm 1 mps 748 mmHg 60%
    19:00 +18°C° 0 mm 1 mps 748 mmHg 65%
    20:00 +16°C° 0 mm 1 mps 748 mmHg 68%
    21:00 +15°C° 0 mm 1 mps 748 mmHg 71%
    22:00 +13°C° 0 mm 0 mps 749 mmHg 73%
    23:00 +12°C° 0 mm 0 mps 749 mmHg 75%
    Show more